Location: Aalen
(48.8330°N, 10.1000°E)
Time: 18:06:01
(UTC+02:00)

Altair - Visible Passes

Search period start: 28 July 2021 00:00
Search period end: 07 August 2021 00:00
Orbit: 1501 x 1682 km, 47.2° (Epoch: 28 July)

Date Brightness Start Highest point End Pass type
(mag) Time Alt. Az. Time Alt. Az. Time Alt. Az.
28 Jul 9.1 01:40:52 12° SE 01:42:03 12° SE 01:45:17 10° ESE visible
28 Jul 8.0 03:38:53 20° SSW 03:44:43 41° SE 03:53:03 10° ENE visible
29 Jul 9.1 01:16:51 11° SE 01:17:05 11° ESE 01:18:54 10° ESE visible
29 Jul 8.1 03:14:51 24° S 03:19:38 38° SE 03:27:52 10° ENE visible
30 Jul 8.1 02:50:47 27° S 02:54:34 36° SE 03:02:40 10° ENE visible
30 Jul 7.5 04:49:03 10° WSW 04:58:19 71° SSE 05:07:26 10° E visible
31 Jul 8.1 02:26:40 28° S 02:29:31 34° SE 02:37:27 10° E visible
31 Jul 7.5 04:24:40 13° WSW 04:33:11 69° SSE 04:42:16 10° E visible
01 Aug 8.2 02:02:31 29° SSE 02:04:28 31° SE 02:12:12 10° E visible
01 Aug 7.5 04:00:31 17° SW 04:08:03 67° SSE 04:17:07 10° E visible
02 Aug 8.2 01:38:21 29° SSE 01:39:25 29° SE 01:46:58 10° E visible
02 Aug 7.5 03:36:20 21° SW 03:42:55 64° SSE 03:51:57 10° E visible
03 Aug 8.3 01:14:06 27° SE 01:14:22 27° SE 01:21:42 10° E visible
03 Aug 7.5 03:12:05 26° SW 03:17:47 62° SSE 03:26:48 10° ENE visible
03 Aug 7.5 05:12:50 10° W 05:22:11 82° S 05:31:22 10° E visible
04 Aug 8.4 00:49:50 25° SE 00:49:50 25° SE 00:56:25 10° E visible
04 Aug 7.5 02:47:48 30° SW 02:52:40 59° SSE 03:01:39 10° ENE visible
04 Aug 7.5 04:47:39 10° W 04:57:01 82° S 05:06:13 10° E visible
05 Aug 8.5 00:25:29 23° ESE 00:25:29 23° ESE 00:31:05 10° E visible
05 Aug 7.5 02:23:27 35° SSW 02:27:33 57° SSE 02:36:30 10° ENE visible
05 Aug 7.4 04:22:27 10° W 04:31:52 82° S 04:41:04 10° E visible
06 Aug 8.6 00:01:04 20° ESE 00:01:04 20° ESE 00:05:44 10° E visible
06 Aug 7.5 01:59:02 38° SSW 02:02:27 54° SSE 02:11:20 10° ENE visible
06 Aug 7.4 03:57:16 10° W 04:06:42 81° S 04:15:54 10° E visible
06 Aug 8.7 23:36:33 18° ESE 23:36:33 18° ESE 23:40:20 10° E visible
